Regional Weather Roundup
Issued by NWS Charleston, SC

Current Version | Previous Version | Text Only | Print | Product List | Glossary Off
Versions: 1 2 3 4 5 6 7 8 9 10 11 12 13 14 15 16 17 18 19 20 21 22 23 24 25 26 27 28 29 30 31 32 33 34 35 36 37 38 39 40 41 42 43 44 45 46 47 48 49 50

000
ASUS42 KCHS 250625
RWRCHS

REGIONAL WEATHER ROUNDUP
NATIONAL WEATHER SERVICE CHARLESTON SC
200 AM EDT SAT OCT 25 2014

NOTE: "FAIR" INDICATES FEW OR NO CLOUDS BELOW 12,000 FEET WITH NO
SIGNIFICANT WEATHER AND/OR OBSTRUCTIONS TO VISIBILITY.

NOT ALL STATIONS ARE QUALITY CONTROLLED BY THE NATIONAL
WEATHER SERVICE. USE DATA WITH CAUTION...ESPECIALLY
DEWPOINT OBSERVATIONS.

SCZ027-030-031-034>040-042>050-250700-
...SOUTH CAROLINA...

CITY           SKY/WX    TMP DP  RH WIND       PRES   REMARKS
N CHARLESTON   PTCLDY    54  50  86 CALM      30.00F
6HR MIN TEMP:  54; 6HR MAX TEMP:  64;

WATERFRONT PRK   N/A     63 N/A N/A CALM        N/A
FORT JOHNSON   NOT AVBL
JOHNS ISLAND   CLEAR     54  52  94 CALM      30.00S
PINOPOLIS      NOT AVBL
MONCKS CORNER  FAIR      52  52 100 CALM      29.99F FOG
SUMMERVILLE    FAIR      50  50 100 CALM      30.00F
BEAUFORT MCAS  CLEAR     54  51  90 CALM      30.00F
6HR MIN TEMP:  52; 6HR MAX TEMP:  60;

BEAUFORT ARPT  FAIR      55  54  94 CALM      29.99F
HILTON HEAD IS   N/A     54  52  94 CALM      30.01S
GEORGETOWN     NOT AVBL
WALTERBORO     CLEAR     50 N/A N/A CALM      30.00F
ORANGEBURG     CLEAR     48  46  93 CALM      30.00F FOG
6HR MIN TEMP:  48; 6HR MAX TEMP:  63;

BARNWELL       FAIR      46  45  93 CALM      30.01S
AIKEN          FAIR      45  45 100 CALM      30.04S
MANNING        FAIR      46 N/A N/A CALM      30.00S
KINGSTREE      NOT AVBL
COLUMBIA       CLEAR     46  42  86 SW3       30.00S
6HR MIN TEMP:  45; 6HR MAX TEMP:  61;

SUMTER         CLEAR     51  48  88 CALM      29.98F
6HR MIN TEMP:  49; 6HR MAX TEMP:  61;

FLORENCE       CLEAR     48  46  93 SW3       30.00R
6HR MIN TEMP:  48; 6HR MAX TEMP:  60;

MYRTLE BEACH   MOCLDY    55  48  76 W5        30.00S
N MYRTLE BEACH MOCLDY    52  50  93 CALM      29.99S
6HR MIN TEMP:  51; 6HR MAX TEMP:  56;


$$

GAZ063-065-086>088-099>101-113>116-118-119-134-136>141-150-250700-
...GEORGIA...

CITY           SKY/WX    TMP DP  RH WIND       PRES   REMARKS
SAVANNAH ARPT  CLEAR     51  47  86 CALM      30.01S
6HR MIN TEMP:  51; 6HR MAX TEMP:  62;

HUNTER AAF     CLEAR     50  48  93 W3        29.98F
6HR MIN TEMP:  50; 6HR MAX TEMP:  59;

FORT STEWART   CLEAR     47  45  92 CALM      29.99F
6HR MIN TEMP:  47; 6HR MAX TEMP:  58;

STATESBORO     NOT AVBL
SYLVANIA       CLEAR     51  50  97 CALM      30.02R
CLAXTON        FAIR      46  46 100 CALM      30.01S
THOMSON        CLEAR     46  46 100 CALM      30.06R
AUGUSTA-BUSH   CLEAR     43  41  93 CALM      30.01S
6HR MIN TEMP:  42; 6HR MAX TEMP:  57;

AUGUSTA-DANIEL CLEAR     57  46  66 CALM      30.01S
SWAINSBORO     FAIR      48  48 100 MISG      30.01S
VIDALIA        CLEAR     50  48  93 CALM      30.01S
ALMA           FOG       46  45  96 CALM      30.01S VSB 1
6HR MIN TEMP:  46; 6HR MAX TEMP:  56;

WAYCROSS       CLEAR     53  51  94 CALM      30.00F
JESUP          FAIR      46  45  93 CALM      30.00F
BRUNSWICK        N/A     50  46  87 CALM      30.00S VSB 1
SAINT SIMONS   CLEAR     52  49  89 CALM      30.00F
6HR MIN TEMP:  52; 6HR MAX TEMP:  60;


$$

SCZ027-028-034-036>038-045-046-048>050-GAZ119-141-250700-
...LAKE AND SUPPLEMENTAL COASTAL OBSERVATIONS...

STATION/POSITION TIME  TEMP    WIND        PRES    WAVE   SWELL
                       AIR SEA DIR/SP/G            HT/PER HT/PER/DIR
                 (UTC) (F)     (DEG/KT/KT) (MB)    (FT/S) (FT/S/D)
UPR LAKE MARION  NOT AVBL
WINYAH BAY       0600   57     300/  2     1015.0S
LAKE MURRAY      0500   53      CALM  /  1 1015.6S
ACE BASIN NERRS  0600   55        CALM     1016.0S
FORT PULASKI     0600   62     300/  4/  5 1015.9F
SAPELO ISLAND    NOT AVBL

$$

ANZ835-935-AMZ111-154-330-350-352-354-374-450-454-472-250700-
...C-MAN AND BUOY OBSERVATIONS...

STATION/POSITION TIME  TEMP    WIND        PRES    WAVE   SWELL
                       AIR SEA DIR/SP/G            HT/PER HT/PER/DIR
                 (UTC) (F)     (DEG/KT/KT) (MB)    (FT/S) (FT/S/D)
FOLLY BEACH CMAN 0600   59     310/  3/  4 1016.2F
BUOY 41004       0600   69 78  340/  6/  8 1015.4F   3/10   3/10
BUOY 41008       0600   70 74   20/  6/  8 1015.7F   2/11   2/ 70/11
5E ST. MARYS GA  0600      75                N/A     2/12   2/100/12
FRYING PAN BUOY  0600   67 73  340/  6/ 10 1016.2S   2/ 9   2/110/ 9
BUOY 41025       0600   65     330/ 12/ 14 1014.6S   4/10   3/ 40/10
CAPE LOOKOUT NC  0600   63     330/  6/  7 1014.6F
BUOY 41002       0531   71 77   20/  4/  8 1014.8F   4/ 9   3/ 10/ 9
BUOY 41010       0600   75 82   20/ 14/ 17 1013.3F   3/11   2/ 30/11
BUOY 41012       NOT AVBL
ST AUGUSTINE FL  0600   63     310/  8/  9 1015.8F
CAPERS NEARSHORE NOT AVBL
FRIPP NEARSHORE  NOT AVBL


$$



USA.gov is the U.S. government's official web portal to all federal, state and local government web resources and services.